oulu.fi alexa rank chart, oulu.fi alexa rank daily changes

oulu.fi alexa rank chart, oulu.fi alexa rank daily changes

oulu.fi
Actual rank:
34 104

RANK HISTORY

Date Rank Diff
2017/09/22 34 104 -867
2017/09/20 34 971 -665
2017/09/19 35 636 +274
2017/09/18 35 362 -266
2017/09/17 35 628 +436
2017/09/16 35 192 -380
2017/09/15 35 572 -239
2017/09/14 35 811 -177
2017/09/13 35 988 -618
2017/09/12 36 606 -46
2017/09/11 36 652 -102
2017/09/10 36 754 +443
2017/09/09 36 311 -316
2017/09/08 36 627 -29
2017/09/07 36 656 -1 059
2017/09/06 37 715 -835
2017/09/05 38 550 -208
2017/09/04 38 758 -97
2017/09/03 38 855 -1 169
2017/09/02 40 024 -319
2017/09/01 40 343 -337
2017/08/31 40 680 -534
2017/08/30 41 214 -519
2017/08/29 41 733 -349
2017/08/28 42 082 +809
2017/08/27 41 273 -375
2017/08/26 41 648 -15
2017/08/25 41 663 +106
2017/08/24 41 557 -491
2017/08/23 42 048 +227
2017/08/22 41 821 -353
2017/08/21 42 174 +393
2017/08/20 41 781 -233
2017/08/19 42 014 -790
2017/08/18 42 804 -496
2017/08/17 43 300 -778
2017/08/16 44 078 -410
2017/08/15 44 488 +435
2017/08/14 44 053 -1 445
2017/08/13 45 498 -747
2017/08/12 46 245 +365
2017/08/11 45 880 +451
2017/08/10 45 429 -214
2017/08/09 45 643 +451
2017/08/08 45 192 -403
2017/08/07 45 595 +131
2017/08/06 45 464 +767
2017/08/05 44 697 +883
2017/08/04 43 814 -281
2017/08/03 44 095 +228
2017/08/02 43 867 +211
2017/08/01 43 656 +368
2017/07/31 43 288 +96
2017/07/30 43 192 +369
2017/07/29 42 823 +480
2017/07/28 42 343 +467
2017/07/27 41 876 +1 260
2017/07/26 40 616 -248
2017/07/25 40 864 -599
2017/07/24 41 463

WIDGET FOR YOUR SITE

DOMAINS WITH THE NEAREST RANK

Domain Rank
cqu.edu.au 34 099
bbvacontinental.pe 34 100
ecobee.com 34 101
bug.hr 34 102
techjuice.pk 34 103
oulu.fi 34 104
letsgojp.com 34 105
fritzmorgen.livejournal.com 34 106
payment.ru 34 107
straightline.jp 34 108
stcloudstate.edu 34 109

DOMAINS WITH THE NEAREST RANK BY TLD .fi

Domain Rank
tabletkoulu.fi 31 633
uusisuomi.fi 32 604
aamulehti.fi 33 381
motonet.fi 33 488
kaleva.fi 33 705
oulu.fi 34 104
tampere.fi 34 839
uef.fi 36 033
fonecta.fi 37 510
viaplay.fi 39 289
power.fi 39 297